Location: Sternwarte ZA, Rosenfeld-Brittheim
(48.2889°N, 8.6789°E)
Time: 21:55:42
(UTC+01:00)

ISS - Pass Details

Date: 26 February 2021
Orbit: 417 x 422 km, 51.6° (Epoch: 02 March)

Event Time Altitude Azimuth Distance (km) Brightness Sun altitude
Exits shadow 05:37:39 44° 251° (WSW) 593 -3.5 -16.5°
Maximum altitude 05:38:38 87° 340° (NNW) 424 -3.9 -16.3°
Drops below altitude 10° 05:42:00 10° 68° (ENE) 1,500 0.2 -15.8°
Sets 05:44:06 0° 69° (ENE) 2,366 1.6 -15.4°
